Weather History for Salt Lake City, UT

Change the Weather History Date:

Wednesday, February 6, 2013

  Actual Average Record
Temperature  
Mean Temperature 29 °F 32 °F  
Max Temperature 33 °F 40 °F 63 °F (1934)
Min Temperature 24 °F 23 °F -14 °F (1989)
Degree Days  
Heating Degree Days 36 33  
Month to date heating degree days 224 203  
Since 1 July heating degree days 3444 3597  
Cooling Degree Days 0 0  
Month to date cooling degree days 0 0  
Year to date cooling degree days 0 0  
Moisture  
Dew Point 26 °F    
Average Humidity 89    
Maximum Humidity 92    
Minimum Humidity 85    
Precipitation  
Precipitation T in 0.04 in 1.00 in (1897)
Month to date precipitation T 0.24  
Year to date precipitation 1.52 1.49  
Snow  
Snow T in 0.40 in 7.90 in (1969)
Month to date snowfall T 2.4  
Since 1 July snowfall 52.4 37.1  
Snow Depth 0.00 in    
Sea Level Pressure  
Sea Level Pressure 30.13 in    
Wind  
Wind Speed 4 mph (WNW)    
Max Wind Speed 10 mph    
Max Gust Speed 13 mph    
Visibility 1 miles    
Events Fog    
T = Trace of Precipitation, MM = Missing Value Source: NWS Daily Summary

Daily Weather History Graph

Daily Weather History Graph

Search for Another Location

Airport:

Trip Planner

Search our weather history database for the weather conditions in past years. The results will help you decide how hot, cold, wet, or windy it might be!

Date:

Astronomy

Feb. 06, 2013 Rise Set
Actual Time 7:32 AM MST 5:52 PM MST
Civil Twilight 7:03 AM MST 6:20 PM MST
Nautical Twilight 6:31 AM MST 6:53 PM MST
Astronomical Twilight 5:59 AM MST 7:25 PM MST
Moon 4:20 AM MST (2/6) 2:13 PM MST (2/6)
Length of Visible Light 11h 16m
Length of Day
10h 19m
Waning Crescent, 16% of the Moon is Illuminated
Feb 6
Waning Crescent
Feb 10
New
Feb 17
First Quarter
Feb 25
Full
Mar 4
Last Quarter

Hourly Weather History & Observations

Time (MST) Temp. Windchill Dew Point Humidity Pressure Visibility Wind Dir Wind Speed Gust Speed Precip Events Conditions
12:07 AM 27.0 °F 20.5 °F 25.0 °F 92% 29.95 in 1.0 mi Variable 5.8 mph - N/A   Overcast
12:53 AM 25.0 °F 20.7 °F 23.0 °F 92% 30.02 in 0.5 mi North 3.5 mph - N/A Fog Light Freezing Fog
1:53 AM 26.1 °F - 25.0 °F 96% 30.02 in 1.0 mi Calm Calm - N/A   Overcast
2:53 AM 28.0 °F 24.2 °F 26.1 °F 92% 30.02 in 2.0 mi South 3.5 mph - N/A   Overcast
3:53 AM 28.0 °F - 26.1 °F 92% 30.02 in 2.0 mi Calm Calm - N/A   Overcast
4:30 AM 28.0 °F - 26.1 °F 92% 29.98 in 1.5 mi Calm Calm - N/A   Overcast
4:53 AM 28.9 °F 25.2 °F 26.1 °F 89% 30.03 in 2.0 mi NW 3.5 mph - N/A   Overcast
5:53 AM 28.0 °F 22.8 °F 25.0 °F 88% 30.06 in 1.5 mi West 4.6 mph - N/A   Overcast
6:53 AM 27.0 °F 23.0 °F 25.0 °F 92% 30.08 in 1.8 mi West 3.5 mph - N/A   Overcast
7:06 AM 27.0 °F 23.0 °F 25.0 °F 92% 30.02 in 2.5 mi West 3.5 mph - N/A   Mostly Cloudy
7:48 AM 28.4 °F 23.3 °F 24.8 °F 86% 30.05 in 0.8 mi WNW 4.6 mph - N/A   Overcast
7:53 AM 28.0 °F 21.7 °F 25.0 °F 88% 30.11 in 0.2 mi WNW 5.8 mph - N/A   Overcast
8:36 AM 26.1 °F 17.6 °F 25.0 °F 96% 30.07 in 0.5 mi West 8.1 mph - N/A   Overcast
8:53 AM 26.1 °F 21.9 °F 25.0 °F 96% 30.14 in 0.5 mi WNW 3.5 mph - N/A   Overcast
9:01 AM 26.1 °F 21.9 °F 25.0 °F 96% 30.08 in 0.5 mi West 3.5 mph - N/A   Overcast
9:41 AM 28.0 °F - 26.1 °F 92% 30.10 in 0.2 mi Calm Calm - N/A   Overcast
9:53 AM 27.0 °F - 26.1 °F 96% 30.18 in 0.2 mi Calm Calm - N/A   Overcast
10:26 AM 28.0 °F 22.8 °F 26.1 °F 92% 30.10 in 0.2 mi SE 4.6 mph - 0.00 in   Overcast
10:53 AM 28.9 °F 25.2 °F 27.0 °F 92% 30.18 in 1.5 mi SW 3.5 mph - 0.00 in   Mostly Cloudy
11:53 AM 30.0 °F 22.4 °F 26.1 °F 85% 30.19 in 1.5 mi West 8.1 mph - N/A   Overcast
12:22 PM 28.9 °F 21.1 °F 26.1 °F 89% 30.13 in 0.2 mi NW 8.1 mph - N/A   Overcast
12:41 PM 30.0 °F 23.2 °F 27.0 °F 88% 30.13 in 0.2 mi NW 6.9 mph - N/A   Overcast
12:53 PM 28.9 °F 20.4 °F 26.1 °F 89% 30.19 in 0.2 mi NW 9.2 mph - N/A   Overcast
1:26 PM 30.0 °F 26.5 °F 27.0 °F 88% 30.11 in 0.5 mi NNW 3.5 mph - N/A   Overcast
1:43 PM 30.9 °F - 27.0 °F 85% 30.11 in 0.5 mi Calm Calm - N/A   Overcast
1:53 PM 30.9 °F - 27.0 °F 85% 30.15 in 0.5 mi Calm Calm - N/A   Mostly Cloudy
2:35 PM 32.0 °F 25.6 °F 27.0 °F 82% 30.12 in 2.0 mi NW 6.9 mph - N/A   Haze
2:53 PM 30.0 °F 23.2 °F 26.1 °F 85% 30.18 in 1.0 mi North 6.9 mph - N/A   Overcast
3:33 PM 28.9 °F 23.9 °F 26.1 °F 89% 30.14 in 2.0 mi NW 4.6 mph - N/A   Overcast
3:53 PM 28.9 °F 23.9 °F 26.1 °F 89% 30.19 in 2.0 mi West 4.6 mph - N/A   Overcast
4:36 PM 28.9 °F 25.2 °F 26.1 °F 89% 30.14 in 0.5 mi North 3.5 mph - N/A   Overcast
4:53 PM 28.0 °F - 25.0 °F 88% 30.20 in 0.5 mi Calm Calm - N/A   Overcast
5:53 PM 27.0 °F 21.6 °F 25.0 °F 92% 30.23 in 0.5 mi North 4.6 mph - N/A   Overcast
6:00 PM 26.1 °F 21.9 °F 25.0 °F 96% 30.17 in 0.2 mi NNE 3.5 mph - N/A Fog Light Freezing Fog
6:53 PM 26.1 °F 21.9 °F 25.0 °F 96% 30.26 in 0.2 mi NNE 3.5 mph - N/A Fog Light Freezing Fog
7:53 PM 26.1 °F 21.9 °F 25.0 °F 96% 30.27 in 0.1 mi South 3.5 mph - N/A Fog Light Freezing Fog
8:53 PM 26.1 °F 20.5 °F 25.0 °F 96% 30.27 in 0.2 mi SSE 4.6 mph - N/A   Overcast
9:01 PM 26.1 °F 19.4 °F 25.0 °F 96% 30.19 in 0.5 mi SE 5.8 mph - N/A   Overcast
9:23 PM 26.1 °F 17.6 °F 25.0 °F 96% 30.20 in 0.2 mi SSE 8.1 mph - N/A Fog Light Freezing Fog
9:53 PM 26.1 °F 18.4 °F 26.1 °F 100% 30.26 in 0.2 mi SE 6.9 mph - N/A Fog Light Freezing Fog
10:53 PM 26.1 °F - 25.0 °F 96% 30.26 in 0.2 mi Calm Calm - N/A Fog Light Freezing Fog
11:53 PM 26.1 °F 20.5 °F 24.1 °F 92% 30.26 in 0.2 mi ESE 4.6 mph - 0.00 in Fog Light Freezing Fog